Tracking 19149 objects as of 21-Apr-2018
HD Live streaming from Space Station
objects crossing your sky now

SL-16 DEB

Track SL-16 DEB now!
10-day predictions


NORAD ID: 22453
Int'l Code: 1992-093ES
Perigee: 825.5 km
Apogee: 1,078.7 km
Inclination: 70.8 °
Period: 103.9 minutes
Semi major axis: 7323 km
RCS: 0.0192 m2 (small)
Launch date: December 25, 1992
Source: Commonwealth of Independent States (former USSR) (CIS)
Launch site: TYURATAM MISSILE AND SPACE COMPLEX (TTMTR)

Note: This is SATELLITE DEBRIS
aabbcc
Your satellite tracking list
Your tracking list is empty




NASA's NSSDC Master Catalog

Two Line Element Set (TLE):
1 22453U 92093ES  18110.25538212 +.00000177 +00000-0 +17432-3 0  9993
2 22453 070.8066 046.0794 0172833 353.5751 156.2493 13.85351984274064
Source of the keplerian elements: AFSPC